| time (UTC) | temp F | wind direction | speed knots | gust knots | rain 1hr in | rain 24hr in | rain mn in | humidity % | barometer mb |
| 20260507040051 | 0 | 9 | 0.0 | 2.6 | 0.00 | 0.00 | 0.00 | 1014.2 | |
| 20260507034544 | 0 | 355 | 0.0 | 2.6 | 0.00 | 0.00 | 0.00 | 1014.1 | |
| 20260507033037 | 0 | 13 | 0.0 | 2.6 | 0.00 | 0.00 | 0.00 | 1014.0 | |
| 20260507031529 | 0 | 13 | 0.0 | 1.7 | 0.00 | 0.00 | 0.00 | 1014.0 | |
| 20260507030030 | 0 | 13 | 0.0 | 2.6 | 0.00 | 0.00 | 0.00 | 1013.9 | |
| 20260507024522 | 0 | 17 | 0.9 | 4.3 | 0.00 | 0.00 | 0.00 | 1013.8 | |
| 20260507023018 | 0 | 13 | 0.0 | 4.3 | 0.00 | 0.00 | 0.00 | 1013.7 | |
| 20260507021516 | 0 | 9 | 0.0 | 2.6 | 0.00 | 0.00 | 0.00 | 1013.7 | |
| 20260507020010 | 0 | 12 | 0.0 | 3.5 | 0.00 | 0.00 | 0.00 | 1013.6 | |
| 20260507014507 | 0 | 17 | 0.0 | 3.5 | 0.00 | 0.00 | 0.00 | 1013.4 | |
| 20260507013001 | 0 | 5 | 0.0 | 1.7 | 0.00 | 0.00 | 0.00 | 1013.4 | |
| 20260507011604 | 0 | 5 | 0.0 | 2.6 | 0.00 | 0.00 | 0.00 | 1013.3 | |
| 20260507010055 | 0 | 9 | 0.0 | 2.6 | 0.00 | 0.00 | 0.00 | 1013.4 | |
| 20260507004551 | 0 | 9 | 0.0 | 2.6 | 0.00 | 0.00 | 0.00 | 1013.3 | |
| 20260507003046 | 0 | 5 | 0.0 | 0.9 | 0.00 | 0.00 | 0.00 | 1013.3 | |
| 20260507001550 | 0 | 5 | 0.0 | 0.0 | 0.00 | 0.00 | 0.00 | 1013.3 | |
| 20260507000040 | 0 | 5 | 0.0 | 0.9 | 0.00 | 0.00 | 0.00 | 1013.3 | |
| 20260506234542 | 0 | 13 | 0.0 | 1.7 | 0.00 | 0.00 | 0.00 | 1013.3 | |
| 20260506233030 | 0 | 360 | 0.0 | 3.5 | 0.00 | 0.00 | 0.00 | 1013.2 | |
| 20260506231528 | 0 | 13 | 0.0 | 3.5 | 0.00 | 0.00 | 0.00 | 1013.2 | |
| 20260506230021 | 0 | 32 | 0.0 | 2.6 | 0.00 | 0.00 | 0.00 | 1013.3 | |
| 20260506224526 | 0 | 18 | 0.9 | 4.3 | 0.00 | 0.00 | 0.00 | 1013.2 | |
| 20260506223014 | 0 | 14 | 0.0 | 2.6 | 0.00 | 0.00 | 0.00 | 1013.1 | |
| 20260506221511 | 0 | 15 | 0.0 | 5.2 | 0.00 | 0.00 | 0.00 | 1013.0 | |
| 20260506220007 | 0 | 35 | 0.9 | 4.3 | 0.00 | 0.00 | 0.00 | 1013.0 | |
| 20260506214503 | 0 | 37 | 1.7 | 7.0 | 0.00 | 0.00 | 0.00 | 1012.9 | |
| 20260506213103 | 0 | 41 | 1.7 | 6.1 | 0.00 | 0.00 | 0.00 | 1012.8 | |
| 20260506211554 | 0 | 11 | 2.6 | 6.1 | 0.00 | 0.00 | 0.00 | 1012.7 | |
| 20260506210100 | 0 | 24 | 0.9 | 7.8 | 0.00 | 0.00 | 0.00 | 1012.5 | |
| 20260506204551 | 0 | 18 | 1.7 | 7.0 | 0.00 | 0.00 | 0.00 | 1012.5 | |
| 20260506203121 | 0 | 13 | 3.5 | 7.0 | 0.00 | 0.00 | 0.00 | 1012.5 | |
| 20260506201539 | 0 | 5 | 2.6 | 7.0 | 0.00 | 0.00 | 0.00 | 1012.4 | |
| 20260506200045 | 0 | 11 | 2.6 | 6.1 | 0.00 | 0.00 | 0.00 | 1012.4 | |
| 20260506194532 | 0 | 14 | 3.5 | 7.0 | 0.00 | 0.00 | 0.00 | 1012.1 | |
| 20260506193028 | 0 | 12 | 1.7 | 7.8 | 0.00 | 0.00 | 0.00 | 1012.0 | |
| 20260506191524 | 0 | 32 | 1.7 | 7.0 | 0.00 | 0.00 | 0.00 | 1011.8 | |
| 20260506190029 | 0 | 29 | 4.3 | 7.8 | 0.00 | 0.00 | 0.00 | 1011.5 | |
| 20260506184516 | 0 | 16 | 2.6 | 7.0 | 0.00 | 0.00 | 0.00 | 1011.3 | |
| 20260506183013 | 0 | 15 | 3.5 | 7.8 | 0.00 | 0.00 | 0.00 | 1011.1 | |
| 20260506181507 | 0 | 17 | 2.6 | 9.6 | 0.00 | 0.00 | 0.00 | 1010.9 | |
| 20260506180005 | 0 | 9 | 3.5 | 7.8 | 0.00 | 0.00 | 0.00 | 1010.7 | |
| 20260506174501 | 0 | 11 | 2.6 | 8.7 | 0.00 | 0.00 | 0.00 | 1010.5 | |
| 20260506173058 | 0 | 14 | 2.6 | 8.7 | 0.00 | 0.00 | 0.00 | 1010.3 | |
| 20260506171559 | 0 | 5 | 2.6 | 7.0 | 0.00 | 0.00 | 0.00 | 1010.2 | |
| 20260506170050 | 0 | 45 | 2.6 | 7.8 | 0.00 | 0.00 | 0.00 | 1010.2 | |
| 20260506164549 | 0 | 25 | 0.0 | 4.3 | 0.00 | 0.00 | 0.00 | 1010.2 | |
| 20260506163056 | 0 | 17 | 0.0 | 4.3 | 0.00 | 0.00 | 0.00 | 1010.1 | |
| 20260506161538 | 0 | 355 | 0.0 | 2.6 | 0.00 | 0.00 | 0.00 | 1010.1 | |
| 20260506160034 | 0 | 32 | 1.7 | 5.2 | 0.00 | 0.00 | 0.00 | 1010.1 | |
| 20260506154535 | 0 | 14 | 3.5 | 6.1 | 0.00 | 0.00 | 0.00 | 1010.1 | |
| 20260506153028 | 0 | 19 | 0.0 | 3.5 | 0.00 | 0.00 | 0.00 | 1010.1 | |
| 20260506151521 | 0 | 16 | 0.9 | 5.2 | 0.00 | 0.00 | 0.00 | 1010.0 | |
| 20260506150017 | 0 | 15 | 2.6 | 10.4 | 0.00 | 0.00 | 0.00 | 1010.0 | |
| 20260506144516 | 0 | 29 | 1.7 | 7.8 | 0.00 | 0.00 | 0.00 | 1009.9 | |
| 20260506143014 | 0 | 20 | 5.2 | 9.6 | 0.00 | 0.00 | 0.00 | 1009.8 | |
| 20260506141506 | 0 | 26 | 4.3 | 9.6 | 0.00 | 0.00 | 0.00 | 1009.8 | |
| 20260506140002 | 0 | 53 | 2.6 | 7.8 | 0.00 | 0.00 | 0.00 | 1009.8 | |
| 20260506134558 | 0 | 348 | 1.7 | 6.1 | 0.00 | 0.00 | 0.00 | 1009.8 | |
| 20260506133054 | 0 | 23 | 1.7 | 6.1 | 0.00 | 0.00 | 0.00 | 1009.8 | |
| 20260506131551 | 0 | 28 | 2.6 | 8.7 | 0.00 | 0.00 | 0.00 | 1009.9 | |
| 20260506130047 | 0 | 25 | 0.9 | 7.0 | 0.00 | 0.00 | 0.00 | 1009.9 | |
| 20260506124546 | 0 | 75 | 1.7 | 7.0 | 0.00 | 0.00 | 0.00 | 1009.9 | |
| 20260506123039 | 0 | 118 | 0.9 | 7.0 | 0.00 | 0.00 | 0.00 | 1009.8 | |
| 20260506121536 | 0 | 348 | 1.7 | 6.1 | 0.00 | 0.00 | 0.00 | 1009.8 | |
| 20260506120032 | 0 | 355 | 1.7 | 7.8 | 0.00 | 0.00 | 0.00 | 1009.8 | |
| 20260506114527 | 0 | 24 | 2.6 | 9.6 | 0.00 | 0.00 | 0.00 | 1009.7 | |
| 20260506113023 | 0 | 355 | 2.6 | 7.0 | 0.00 | 0.00 | 0.00 | 1009.6 | |
| 20260506111526 | 0 | 82 | 0.9 | 7.0 | 0.00 | 0.00 | 0.00 | 1009.5 | |
| 20260506110015 | 0 | 19 | 2.6 | 7.0 | 0.00 | 0.00 | 0.00 | 1009.6 | |
| 20260506104511 | 0 | 355 | 2.6 | 7.8 | 0.00 | 0.00 | 0.00 | 1009.6 | |
| 20260506103006 | 0 | 44 | 1.7 | 7.8 | 0.00 | 0.00 | 0.00 | 1009.4 | |
| 20260506101502 | 0 | 13 | 3.5 | 10.4 | 0.00 | 0.00 | 0.00 | 1009.4 | |
| 20260506100100 | 0 | 16 | 2.6 | 8.7 | 0.00 | 0.00 | 0.00 | 1009.4 | |
| 20260506094559 | 0 | 14 | 3.5 | 12.2 | 0.00 | 0.00 | 0.00 | 1009.3 | |
| 20260506093058 | 0 | 49 | 7.0 | 16.5 | 0.00 | 0.00 | 0.00 | 1009.4 | |
| 20260506091548 | 0 | 24 | 2.6 | 7.8 | 0.00 | 0.00 | 0.00 | 1009.2 | |
| 20260506090054 | 0 | 350 | 3.5 | 7.8 | 0.00 | 0.00 | 0.00 | 1009.1 | |
| 20260506084545 | 0 | 44 | 1.7 | 7.0 | 0.00 | 0.00 | 0.00 | 1009.1 | |
| 20260506083038 | 0 | 36 | 2.6 | 9.6 | 0.00 | 0.00 | 0.00 | 1009.1 | |
| 20260506081537 | 0 | 43 | 2.6 | 11.3 | 0.00 | 0.00 | 0.00 | 1008.9 | |
| 20260506073021 | 0 | 13 | 2.6 | 5.2 | 0.00 | 0.00 | 0.00 | 1008.7 | |
| 20260506071519 | 0 | 34 | 3.5 | 7.0 | 0.00 | 0.00 | 0.00 | 1008.8 | |
| 20260506061601 | 0 | 360 | 2.6 | 7.0 | 0.00 | 0.00 | 0.00 | 1008.5 | |
| 20260506043033 | 0 | 28 | 3.5 | 7.8 | 0.00 | 0.00 | 0.00 | 1008.3 | |
| 20260506041539 | 0 | 23 | 1.7 | 6.1 | 0.00 | 0.00 | 0.00 | 1008.3 |